Meteo Giornale » Osservazioni meteo Svizzera » Lugano

ore: 15:50 - Osservazioni Meteo Lugano
Lat. 46° 0' N Lon. 8° 58' E Alt. 273 metri s.l.m.

poco_nuvoloso Europe/Zurich

24 °C

Poco Nuvoloso

Temp. 24 Ore

14 °C

24 °C

Sud

11.1 Km/h

Dew point 10 °C

Umidità 41 %

Visibilità  10 Km

Il sole sorge alle ore 07:12

Il sole tramonta alle ore 19:18

Data e Ora Cielo e Fenomeni T °C DP °C Um. % Pres. hPa Vis. km Vento km/h
Oggi h: 15:50 poco_nuvoloso Poco Nuvoloso 24 10 41 1016 10 S 11.1
Oggi h: 15:20 poco_nuvoloso Poco Nuvoloso 24 10 41 1017 10 S 11.1
Oggi h: 14:50 poco_nuvoloso Poco Nuvoloso 23 10 43 1017 10 S 11.1
Oggi h: 14:20 poco_nuvoloso Poco Nuvoloso 23 11 46 1017 10 S 13
Oggi h: 13:50 poco_nuvoloso Poco Nuvoloso 22 11 49 1017 10 S 11.1
Oggi h: 13:20 sereno Sereno 22 12 53 1018 10 S 11.1
Oggi h: 12:50 sereno Sereno 21 12 56 1018 10 S 13
Oggi h: 12:20 sereno Sereno 21 13 60 1018 10 S/SO 11.1
Oggi h: 11:50 poco_nuvoloso Poco Nuvoloso 20 13 64 1018 10 S 9.3
Oggi h: 11:20 poco_nuvoloso Poco Nuvoloso 19 12 63 1019 10 S 7.4
Oggi h: 10:50 sereno Sereno 18 13 72 1019 10 S 7.4
Oggi h: 10:20 poco_nuvoloso Poco Nuvoloso 18 14 77 1019 10 S 9.3
Oggi h: 09:50 poco_nuvoloso Poco Nuvoloso 17 13 77 1019 10 N 3.7
Oggi h: 09:20 nuvoloso Nuvoloso 16 14 87 1019 10 N 3.7
Oggi h: 08:50 nuvoloso Nuvoloso 15 14 93 1019 10 N 1.8
Oggi h: 08:20 nuvoloso Nuvoloso 14 14 100 1019 10 N 3.7
Oggi h: 07:50 poco_nuvoloso Poco Nuvoloso 14 13 93 1019 10 N 1.8
Oggi h: 07:20 poco_nuvoloso Poco Nuvoloso 15 14 93 1018 10 N 5.5
Oggi h: 06:50 molto_nuvoloso Molto Nuvoloso 16 14 87 1018 10 S 7.4
Oggi h: 06:20 molto_nuvoloso Rovescio nelle Vicinanze 15 14 93 1018 10 N 3.7
Oggi h: 05:50 molto_nuvoloso Molto Nuvoloso 15 14 93 1018 10 N 3.7
Oggi h: 05:20 molto_nuvoloso Molto Nuvoloso 15 14 93 1018 10 N 5.5
Oggi h: 04:50 coperto Coperto 15 14 93 1019 10 N 1.8
Oggi h: 04:20 coperto Coperto 15 14 93 1019 10 N 1.8
Oggi h: 03:50 coperto Coperto 15 14 93 1019 10 N/NE 7.4
Oggi h: 03:20 molto_nuvoloso Molto Nuvoloso 15 14 93 1019 10 N 1.8
Oggi h: 02:50 coperto Coperto 15 14 93 1019 10 N 1.8
Oggi h: 02:20 coperto Coperto 15 15 100 1019 10 N 5.5
Oggi h: 01:50 coperto Coperto 15 14 93 1019 10 N 1.8
Oggi h: 01:20 coperto Coperto 15 15 100 1020 10 N 1.8
Oggi h: 00:50 nuvoloso Nuvoloso 15 15 100 1019 10 N 1.8
Oggi h: 00:20 molto_nuvoloso Molto Nuvoloso 15 15 100 1020 10 N 3.7
Ieri h: 23:50 sereno Sereno 15 14 93 1019 10 N 0
Ieri h: 23:20 sereno Sereno 16 15 93 1020 10 N 1.8
Ieri h: 22:50 coperto Coperto 17 15 88 1020 10 N 3.7
Ieri h: 22:20 coperto Coperto 17 15 88 1020 10 N 1.8
Ieri h: 21:50 molto_nuvoloso Molto Nuvoloso 17 14 82 1020 10 N 3.7
Ieri h: 21:20 molto_nuvoloso Molto Nuvoloso 18 14 77 1020 10 N 1.8
Ieri h: 20:50 molto_nuvoloso Molto Nuvoloso 18 15 82 1020 10 N 3.7
Ieri h: 20:20 molto_nuvoloso Molto Nuvoloso 18 15 82 1019 10 S 7.4
Ieri h: 19:50 molto_nuvoloso Molto Nuvoloso 19 14 72 1019 10 N 5.5
Ieri h: 19:20 molto_nuvoloso Molto Nuvoloso 19 15 77 1019 10 N 3.7
Ieri h: 18:50 nuvoloso Nuvoloso 20 13 64 1019 10 S/SO 7.4
Ieri h: 18:20 nuvoloso Nuvoloso 21 13 60 1019 10 SO 9.3
Ieri h: 17:50 poco_nuvoloso Poco Nuvoloso 22 13 56 1019 10 S/SO 9.3
Ieri h: 17:20 nuvoloso Nuvoloso 22 13 56 1019 10 S/SO 11.1
Ieri h: 16:50 nuvoloso Nuvoloso 22 13 56 1019 10 S 11.1